AGROMETEOROLOŠKI PORTAL
Vinorodna pokrajina

Temelj dobrega kmetovanja.

Pregled podatkov za lokacijo HOČKO POHORJE - ARSO, meteorološka postaja 154

Pregled senzorjev na lokaciji

ID Ime Zadnja
vrednost
Datum in čas
meritve
(lokalni čas)
Tip
senzorja
5942 Padavine (mm) 0 mm 19.4.2024 15:00 ARSO
5944 Relativna zračna vlaga (2 m) (% RH) 58 % RH 19.4.2024 15:00 ARSO
5943 Temperatura (2 m) (°C) 8,2 °C 19.4.2024 15:00 ARSO

Pregled podatkov zadnjih 24 ur

Zap.
št.
Datum in čas
(lokalni čas)
HOČKO POHORJE - ARSO
Padavine Relativna
zračna
vlaga
(2
m)
Temperatura
(2
m)
1 19.4.2024 15:00 0 58 8,2
2 19.4.2024 14:30 0 54 8,7
3 19.4.2024 14:00 0 52 9
4 19.4.2024 13:30 0 52,3 8,1
5 19.4.2024 13:00 0 53 8,5
6 19.4.2024 12:30 0 54,7 8,3
7 19.4.2024 12:00 0 56,3 7,7
8 19.4.2024 11:30 0 56,7 8
9 19.4.2024 11:00 0 56,3 8,2
10 19.4.2024 10:30 0 59 8,2
11 19.4.2024 10:00 0 64,7 7,3
12 19.4.2024 09:30 0 64,7 6,3
13 19.4.2024 09:00 0 62,3 6
14 19.4.2024 08:30 0 59,7 6,1
15 19.4.2024 08:00 0 61,7 5,5
16 19.4.2024 07:30 0 58,3 4,6
17 19.4.2024 07:00 0 62,7 3,5
18 19.4.2024 06:30 0 69 2,7
19 19.4.2024 06:00 0 68 2,8
20 19.4.2024 05:30 0 68,7 2,7
21 19.4.2024 05:00 0 69,3 2,7
22 19.4.2024 04:30 0 63,7 3,3
23 19.4.2024 04:00 0 65,3 3,3
24 19.4.2024 03:30 0 60,7 3,7
25 19.4.2024 03:00 0 62 3,7
26 19.4.2024 02:30 0 63,3 3,7
27 19.4.2024 02:00 0 67,7 3,7
28 19.4.2024 01:30 0 65 4,1
29 19.4.2024 01:00 0 63,7 4,4
30 19.4.2024 00:30 0 67,7 4,2
31 19.4.2024 00:00 0 69,3 4,3
32 18.4.2024 23:30 0 73,7 4,4
33 18.4.2024 23:00 0 79,3 4
34 18.4.2024 22:30 0 83,3 3,8
35 18.4.2024 22:00 0 86 3,8
36 18.4.2024 21:30 0,2 87,3 3,8
37 18.4.2024 21:00 0 90,3 3,8
38 18.4.2024 20:30 0 90,3 3,7
39 18.4.2024 20:00 0 92 3,5
40 18.4.2024 19:30 1,6 90,3 3,8
41 18.4.2024 19:00 0 81,3 4,9
42 18.4.2024 18:30 0 85,3 5
43 18.4.2024 18:00 0 89 5
44 18.4.2024 17:30 0 90,3 5,2
45 18.4.2024 17:00 0 90,7 5,3
46 18.4.2024 16:30 0 90 5,4